[[{"header":{"parameterUnit":"m.s-1","parameterCategory":2,"la1":30.2991,"la2":30.254,"lo1":-89.0895,"lo2":-89.0444,"dy":0.0017,"dx":0.0017,"nx":28,"ny":28,"refTime":"2024-05-29T09:00:00:Z","depth":"0","parameterNumber":2,"parameterNumberName":"U-component_of_CURRENTS"},"data":[0,0,0,0,0,0,0,0,0,0,0,0,0,0,0,0,0,0,0,0,0,0,0,0,0,0,0,0,0,0,0,0,0,0,0,0,0,0,0,0,0,0,0,0,0,0,0,0,0,0,0,0,0,0,0,0,0,0,0.2153,0.2153,0,0.2128,0.2127,0.2126,0.211,0.2111,0.2112,0.2112,0.207,0.2069,0.2067,0,0,0,0,0,0,0,0,0,0,0,0,0,0.2101,0.2102,0.2153,0.2153,0.2153,0.2128,0.2127,0.2126,0.211,0.2111,0.2112,0.2113,0.2071,0.2069,0.2067,0,0,0,0,0,0,0,0,0,0,0,0,0,0.2097,0.2102,0.2152,0.2148,0.2148,0.2128,0.2127,0.2126,0.211,0.2111,0.2112,0.2113,0.2072,0.2069,0.2067,0.2033,0,0,0.2059,0.2058,0,0,0,0,0,0,0,0,0.2098,0.2098,0.2148,0.2149,0.2148,0.213,0.2094,0.2096,0.211,0.2116,0.2112,0.2113,0.2093,0.2089,0.2071,0.2031,0.2029,0.2059,0.2057,0.2056,0.2055,0,0,0,0,0,0,0,0.2098,0.2099,0.2135,0.2149,0.2149,0.2119,0.2119,0.2093,0.2094,0.2116,0.2117,0.2126,0.2092,0.2074,0.207,0.2028,0.2059,0.2056,0.2055,0.2054,0.2067,0.2068,0,0,0,0,0,0,0.212,0.21,0.2136,0.2135,0.2133,0.212,0.212,0.2129,0.2094,0.2092,0.2125,0.2125,0.2078,0.2073,0.2069,0.2109,0.2056,0.2054,0.2052,0.2065,0.2067,0.2069,0,0,0,0,0,0,0.2119,0.2124,0.2137,0.2123,0.2123,0.2121,0.213,0.2128,0.2124,0.2103,0.2099,0.2127,0.2078,0.2072,0.2062,0.2104,0.2052,0.205,0.2063,0.2065,0.2068,0.2136,0,0,0,0,0,0,0.2118,0.2123,0.2125,0.2124,0.2125,0.214,0.213,0.2127,0.2131,0.2131,0.2102,0.2099,0.2078,0.2066,0.2059,0.21,0.2048,0.206,0.2064,0.2067,0.2132,0.2141,0.2149,0,0,0,0,0,0.2116,0.2118,0.2125,0.213,0.2133,0.2141,0.2137,0.2133,0.2131,0.2131,0.2115,0.21,0.2085,0.2064,0.2056,0.2097,0.2058,0.2063,0.2067,0.2128,0.2139,0.2149,0,0,0,0,0,0,0.2089,0.2118,0.2125,0.2135,0.2147,0.2142,0.2138,0.2139,0.2123,0.2123,0.2099,0.2094,0.2111,0.209,0.2067,0.2116,0.2079,0.2082,0.2128,0.2139,0.2147,0.2163,0.2046,0,0,0,0,0,0.2089,0.2102,0.2124,0.2131,0.214,0.2141,0.214,0.2145,0.2138,0.2132,0.2115,0.2109,0.2119,0.2116,0.211,0.2113,0.2129,0.2144,0.2153,0.216,0.2171,0.2235,0.2251,0.2083,0.2083,0.2083,0,0,0.2078,0.2098,0.2103,0.2127,0.2131,0.215,0.2141,0.2151,0.217,0.2129,0.2134,0.2131,0.2127,0.2146,0.2153,0.2133,0.2218,0.2166,0.2172,0.2179,0.2241,0.2258,0.2272,0.2085,0.2085,0.2084,0,0,0.2069,0.2086,0.2096,0.2116,0.2144,0.2152,0.2163,0.217,0.2177,0.218,0.2179,0.2202,0.218,0.2206,0.2213,0.2264,0.2264,0.2269,0.2319,0.2381,0.2396,0.2409,0.2454,0.2471,0.2271,0.2271,0.2271,0,0.2053,0.208,0.2098,0.2121,0.2145,0.2161,0.2185,0.2194,0.2196,0.2218,0.2193,0.2229,0.2218,0.2282,0.2303,0.2287,0.2311,0.2276,0.2393,0.2406,0.2418,0.2462,0.2479,0.2275,0.2274,0.2274,0.2274,0,0.206,0.2086,0.2096,0.214,0.2163,0.2186,0.2223,0.2245,0.2255,0.2271,0.2324,0.2315,0.2346,0.2356,0.2336,0.2431,0.2418,0.2399,0.2366,0.244,0.248,0.2497,0.228,0.2279,0.2278,0.2277,0,0,0.2011,0.2087,0.209,0.2128,0.2182,0.2206,0.2254,0.2311,0.2356,0.2366,0.2425,0.2453,0.2462,0.2473,0.2474,0.252,0.262,0.2493,0.2495,0.2537,0.2754,0.2786,0.2807,0.2621,0.2624,0.2627,0.275,0,0.2012,0.207,0.2105,0.2163,0.2202,0.2253,0.2298,0.2355,0.2393,0.2449,0.2488,0.253,0.2506,0.2525,0.2576,0.2607,0.2667,0.2588,0.2678,0.268,0.2699,0.2829,0.2728,0.2834,0.2766,0.2768,0.277,0,0.2007,0.2054,0.2116,0.2207,0.2227,0.2264,0.2366,0.2408,0.2501,0.2531,0.2598,0.2616,0.27,0.2655,0.2774,0.2724,0.2753,0.277,0.2775,0.2794,0.2745,0.2749,0.2866,0.2789,0.2796,0.2794,0.2792,0,0.1985,0.2061,0.2119,0.215,0.2248,0.2293,0.2343,0.2436,0.2486,0.259,0.2636,0.2727,0.2772,0.2835,0.2876,0.2833,0.2997,0.2941,0.3005,0.3006,0.2934,0.2924,0.2986,0.3045,0.3044,0.3044,0.3044,0,0.1985,0.2028,0.2117,0.2155,0.2215,0.2292,0.2365,0.243,0.2532,0.26,0.2676,0.2751,0.2819,0.2908,0.2933,0.3042,0.3056,0.3055,0.3062,0.2956,0.2947,0.2885,0.2845,0.3049,0.3048,0.3047,0.3046,0,0.1956,0.2018,0.2082,0.2183,0.221,0.2253,0.2354,0.2407,0.2518,0.2613,0.2649,0.279,0.2927,0.3003,0.3113,0.3125,0.3136,0.3237,0.3105,0.3097,0.3078,0.3046,0.3015,0.2922,0.3338,0.334,0.3341,0,0.1956,0.1987,0.2077,0.2099,0.2143,0.2213,0.2255,0.2375,0.2439,0.2635,0.268,0.2855,0.2966,0.317,0.3255,0.3362,0.3216,0.3296,0.3208,0.3112,0.3081,0.2921,0.2831,0.313,0.3129,0.3129,0.3129,0,0.1934,0.196,0.2002,0.2045,0.2088,0.2139,0.2221,0.2275,0.2427,0.2533,0.27,0.2814,0.3061,0.3157,0.3316,0.3351,0.3147,0.3297,0.3229,0.2978,0.2776,0.2676,0.2999,0.3127,0.3127,0.3127,0.3127,0.3128,0.189,0.1895,0.1936,0.1967,0.2013,0.2059,0.2072,0.2185,0.2288,0.2424,0.2619,0.2753,0.2972,0.322,0.324,0.3247,0.3204,0.3143,0.3129,0.2988,0.2853,0.3188,0.3307,0.3308,0.3309,0.331,0.3311,0,0.1796,0.1814,0.1852,0.1879,0.189,0.1953,0.2031,0.2035,0.2117,0.2294,0.2434,0.2682,0.2819,0.2969,0.314,0.3075,0.288,0.2981,0.2705,0.2637,0.2975,0.292,0.2922,0.2922,0.2922,0.2922,0.2922,0.2922,0.1746,0.1727,0.1749,0.1737,0.1767,0.1744,0.1766,0.181,0.1908,0.2059,0.22,0.2373,0.2714,0.2955,0.2969,0.2896,0.2649,0.2563,0.2533,0.2756,0.2766,0.2776,0.2715,0.2674,0.2674,0.2044,0.204,0.2037]},{"header":{"parameterUnit":"m.s-1","parameterCategory":2,"la1":30.2991,"la2":30.254,"lo1":-89.0895,"lo2":-89.0444,"dy":0.0017,"dx":0.0017,"nx":28,"ny":28,"refTime":"2024-05-29T09:00:00:Z","depth":"0","parameterNumber":3,"parameterNumberName":"V-component_of_CURRENTS"},"data":[0,0,0,0,0,0,0,0,0,0,0,0,0,0,0,0,0,0,0,0,0,0,0,0,0,0,0,0,0,0,0,0,0,0,0,0,0,0,0,0,0,0,0,0,0,0,0,0,0,0,0,0,0,0,0,0,0,0,-0.0009,-0.001,0,-0.0079,-0.008,-0.0081,-0.0127,-0.0127,-0.0127,-0.0127,-0.0231,-0.0233,-0.0236,0,0,0,0,0,0,0,0,0,0,0,0,0,0.006,0.0059,-0.0009,-0.001,-0.0011,-0.0079,-0.008,-0.0081,-0.0126,-0.0127,-0.0127,-0.0127,-0.023,-0.0233,-0.0236,0,0,0,0,0,0,0,0,0,0,0,0,0,0.0014,0.0059,-0.0009,-0.0041,-0.0045,-0.0079,-0.008,-0.0081,-0.0126,-0.0127,-0.0127,-0.0128,-0.0229,-0.0233,-0.0236,-0.0252,0,0,-0.0248,-0.0249,0,0,0,0,0,0,0,0,0.0016,0.0011,-0.0036,-0.0039,-0.0043,-0.0094,-0.0093,-0.014,-0.0126,-0.0096,-0.0127,-0.0128,-0.0188,-0.0195,-0.0207,-0.0256,-0.0261,-0.0248,-0.025,-0.0252,-0.0253,0,0,0,0,0,0,0,0.002,0.0014,-0.0037,-0.0037,-0.0041,-0.0061,-0.0068,-0.0102,-0.014,-0.0099,-0.0102,-0.0109,-0.019,-0.0203,-0.021,-0.0262,-0.0248,-0.0251,-0.0254,-0.0255,-0.0333,-0.0333,0,0,0,0,0,0,0.0031,0.0017,-0.0035,-0.0039,-0.0013,-0.0062,-0.0069,-0.0078,-0.0139,-0.0148,-0.0109,-0.0111,-0.0197,-0.0205,-0.0214,-0.0227,-0.0252,-0.0255,-0.0258,-0.0333,-0.0333,-0.0333,0,0,0,0,0,0,0.0032,0.0027,-0.0032,-0.0012,-0.0021,-0.0062,-0.0071,-0.0079,-0.0093,-0.0146,-0.0156,-0.0115,-0.0197,-0.0209,-0.0241,-0.0232,-0.0257,-0.0261,-0.0333,-0.0333,-0.0333,-0.0259,0,0,0,0,0,0,0.0035,0.0028,0.0029,-0.0012,-0.0022,-0.0044,-0.0071,-0.008,-0.0097,-0.01,-0.0155,-0.0165,-0.0199,-0.0235,-0.0245,-0.0237,-0.0263,-0.0334,-0.0333,-0.0333,-0.0262,-0.0257,-0.0252,0,0,0,0,0,0.0037,0.0046,0.003,0.0024,-0.002,-0.0043,-0.005,-0.0081,-0.0096,-0.0096,-0.0135,-0.0163,-0.024,-0.0238,-0.0249,-0.0243,-0.0334,-0.0333,-0.0333,-0.0264,-0.0258,-0.0252,0,0,0,0,0,0,0.0082,0.0041,0.0022,0.0019,-0.0008,-0.005,-0.005,-0.0077,-0.0107,-0.011,-0.0163,-0.0175,-0.02,-0.0233,-0.0229,-0.0265,-0.0291,-0.0293,-0.0235,-0.0229,-0.0224,-0.022,-0.0267,0,0,0,0,0,0.0091,0.0084,0.0043,0.0042,0.0032,-0.001,-0.0022,-0.0045,-0.0079,-0.0093,-0.0132,-0.0173,-0.0207,-0.0226,-0.026,-0.0281,-0.0318,-0.0285,-0.0279,-0.0275,-0.028,-0.0327,-0.0326,-0.0331,-0.0331,-0.0331,0,0,0.0107,0.0086,0.0081,0.005,0.0029,0.002,-0.0018,-0.0031,-0.0041,-0.01,-0.0119,-0.0157,-0.0209,-0.0229,-0.0243,-0.0256,-0.029,-0.0274,-0.027,-0.0278,-0.0326,-0.0326,-0.0325,-0.0331,-0.0331,-0.0331,0,0,0.0141,0.0119,0.0124,0.0105,0.0076,0.0049,0.0048,0.0006,-0.0013,-0.0038,-0.0082,-0.0114,-0.0164,-0.0199,-0.0223,-0.0213,-0.0261,-0.0223,-0.0195,-0.0239,-0.0239,-0.024,-0.0271,-0.0275,-0.022,-0.022,-0.022,0,0.0163,0.0155,0.0124,0.0125,0.0109,0.0066,0.0064,0.0044,-0.0003,-0.0027,-0.0033,-0.0117,-0.015,-0.0191,-0.0182,-0.0201,-0.0233,-0.021,-0.0232,-0.0234,-0.0236,-0.0267,-0.0272,-0.0216,-0.0217,-0.0217,-0.0217,0,0.0194,0.0186,0.0192,0.0171,0.0157,0.0149,0.0113,0.0095,0.0066,0.0031,-0.0013,-0.0059,-0.0115,-0.0121,-0.0146,-0.0176,-0.0196,-0.0218,-0.0244,-0.023,-0.0265,-0.0271,-0.0211,-0.0212,-0.0213,-0.0214,0,0,0.0235,0.0215,0.0215,0.0201,0.0174,0.0159,0.0152,0.0112,0.009,0.0056,0.0022,-0.0021,-0.0058,-0.0089,-0.0126,-0.0155,-0.0178,-0.0184,-0.0188,-0.0208,-0.027,-0.0256,-0.0262,-0.0206,-0.0207,-0.0208,-0.0283,0,0.026,0.0261,0.0248,0.0242,0.0228,0.0193,0.0184,0.0147,0.011,0.0073,0.0022,-0.0018,-0.0043,-0.0066,-0.01,-0.0163,-0.0196,-0.0155,-0.0287,-0.0291,-0.0275,-0.027,-0.0217,-0.0277,-0.029,-0.0291,-0.0292,0,0.0284,0.0274,0.0272,0.0243,0.0237,0.0234,0.0187,0.0174,0.012,0.0095,0.0047,0.0001,-0.0047,-0.0065,-0.0167,-0.0142,-0.0202,-0.0245,-0.025,-0.027,-0.029,-0.0298,-0.029,-0.0453,-0.0303,-0.0302,-0.0301,0,0.0289,0.0285,0.0276,0.0268,0.024,0.0232,0.0217,0.0172,0.0164,0.0106,0.0101,0.0014,-0.0007,-0.0101,-0.0175,-0.0183,-0.028,-0.0309,-0.0356,-0.0355,-0.0354,-0.0352,-0.0516,-0.0389,-0.0389,-0.0389,-0.0389,0,0.0297,0.0287,0.0278,0.0267,0.0263,0.0238,0.0229,0.0204,0.0182,0.0194,0.0113,0.0118,-0.0015,-0.008,-0.0173,-0.0271,-0.0285,-0.0353,-0.0377,-0.0325,-0.0319,-0.0497,-0.0586,-0.0392,-0.0391,-0.0391,-0.039,0,0.029,0.0284,0.0275,0.026,0.0262,0.0255,0.0266,0.0263,0.0239,0.0259,0.0252,0.0191,0.0117,-0.0016,-0.0155,-0.0248,-0.0435,-0.0391,-0.031,-0.0322,-0.0527,-0.0612,-0.0795,-0.0859,-0.0474,-0.0475,-0.0475,0,0.0278,0.0273,0.0279,0.0295,0.0292,0.0293,0.0306,0.0292,0.0315,0.0327,0.0355,0.0285,0.0287,0.008,-0.0109,-0.0288,-0.0432,-0.0378,-0.0388,-0.0535,-0.0648,-0.0709,-0.0754,-0.0357,-0.0356,-0.0355,-0.0355,0,0.0264,0.0275,0.0282,0.032,0.0341,0.0366,0.0396,0.0434,0.0447,0.0504,0.0581,0.0585,0.0386,0.0239,-0.0036,-0.0166,-0.048,-0.037,-0.0553,-0.0596,-0.0644,-0.0715,-0.0309,-0.0348,-0.0349,-0.0349,-0.035,-0.035,0.0274,0.0289,0.0324,0.0366,0.0398,0.0463,0.0527,0.0597,0.0695,0.0833,0.0796,0.0885,0.0586,0.0232,-0.0013,-0.0428,-0.0451,-0.0541,-0.0639,-0.0693,-0.074,-0.031,-0.0356,-0.0357,-0.0357,-0.0358,-0.0358,0,0.0317,0.0344,0.0374,0.0442,0.0508,0.0511,0.0614,0.0726,0.0912,0.1033,0.115,0.1099,0.072,0.0295,-0.028,-0.0621,-0.0748,-0.0819,-0.0912,-0.095,-0.0593,-0.0573,-0.0629,-0.0629,-0.0629,-0.0629,-0.0629,-0.0629,0.0344,0.0401,0.0422,0.0544,0.06,0.0733,0.0821,0.1,0.1138,0.1373,0.1476,0.1496,0.118,0.0048,-0.075,-0.0942,-0.1189,-0.123,-0.1391,-0.1167,-0.1149,-0.1132,-0.1137,-0.131,-0.1311,-0.1677,-0.1681,-0.1684]}],[{"header":{"parameterUnit":"m.s-1","parameterCategory":2,"la1":30.2991,"la2":30.254,"lo1":-89.0895,"lo2":-89.0444,"dy":0.0017,"dx":0.0017,"nx":28,"ny":28,"refTime":"2024-05-29T09:00:00:Z","depth":"2","parameterNumber":2,"parameterNumberName":"U-component_of_CURRENTS"},"data":[0,0,0,0,0,0,0,0,0,0,0,0,0,0,0,0,0,0,0,0,0,0,0,0,0,0,0,0,0,0,0,0,0,0,0,0,0,0,0,0,0,0,0,0,0,0,0,0,0,0,0,0,0,0,0,0,0,0,0.1957,0.1957,0,0.1942,0.1942,0.1941,0.1951,0.1952,0.1953,0.1953,0.195,0.1949,0.1949,0,0,0,0,0,0,0,0,0,0,0,0,0,0.1925,0.1926,0.1957,0.1957,0.1957,0.1942,0.1942,0.1941,0.1951,0.1952,0.1953,0.1954,0.195,0.1949,0.1948,0,0,0,0,0,0,0,0,0,0,0,0,0,0.1925,0.1926,0.1957,0.1963,0.1963,0.1942,0.1942,0.1941,0.1951,0.1952,0.1953,0.1954,0.1951,0.195,0.1948,0.1918,0,0,0.1945,0.1944,0,0,0,0,0,0,0,0,0.1925,0.1925,0.1962,0.1962,0.1963,0.1953,0.1929,0.1935,0.1951,0.1952,0.1954,0.1955,0.1953,0.1952,0.1942,0.1918,0.1918,0.1945,0.1944,0.1943,0.1943,0,0,0,0,0,0,0,0.1925,0.1926,0.1948,0.1962,0.1963,0.1943,0.1944,0.193,0.1944,0.1952,0.1954,0.1957,0.1953,0.1943,0.1942,0.1918,0.1945,0.1944,0.1943,0.1942,0.1987,0.1988,0,0,0,0,0,0,0.1936,0.1926,0.1948,0.1948,0.195,0.1943,0.1944,0.1952,0.1944,0.1945,0.1956,0.1957,0.1944,0.1943,0.1942,0.1992,0.1943,0.1942,0.1942,0.1985,0.1987,0.1989,0,0,0,0,0,0,0.1935,0.1938,0.1949,0.1939,0.1939,0.1943,0.1951,0.1951,0.1958,0.1948,0.1948,0.1966,0.1945,0.1944,0.1946,0.1989,0.1942,0.1941,0.1983,0.1985,0.1988,0.2036,0,0,0,0,0,0,0.1934,0.1938,0.1944,0.194,0.194,0.1949,0.195,0.195,0.1959,0.1961,0.1955,0.1955,0.1946,0.1948,0.1945,0.1986,0.194,0.198,0.1984,0.1987,0.2032,0.2041,0.2047,0,0,0,0,0,0.1933,0.1938,0.1944,0.1947,0.195,0.195,0.1948,0.1952,0.1959,0.1962,0.1961,0.1956,0.197,0.1947,0.1944,0.1986,0.1978,0.1983,0.1987,0.2029,0.2039,0.2047,0,0,0,0,0,0,0.1917,0.194,0.1946,0.1956,0.196,0.1953,0.1959,0.1959,0.1958,0.1967,0.1956,0.1955,0.1981,0.1973,0.1949,0.2014,0.1983,0.1987,0.2017,0.2026,0.2033,0.2077,0.1939,0,0,0,0,0,0.1919,0.1935,0.1946,0.1951,0.1962,0.1962,0.1963,0.1966,0.1967,0.1968,0.1965,0.1976,0.1992,0.1999,0.2003,0.2018,0.2047,0.2053,0.2061,0.2067,0.2103,0.2178,0.2196,0.2003,0.2003,0.2003,0,0,0.1912,0.1926,0.1934,0.1949,0.1957,0.1972,0.1966,0.1976,0.1995,0.1967,0.1991,0.1992,0.2001,0.2029,0.2043,0.2029,0.2133,0.2072,0.2077,0.2111,0.2184,0.2203,0.222,0.2006,0.2005,0.2005,0,0,0.1902,0.1926,0.1937,0.1953,0.1972,0.1979,0.1989,0.1996,0.2013,0.202,0.2028,0.2063,0.2053,0.2093,0.2106,0.2159,0.2167,0.2158,0.2232,0.2303,0.232,0.2335,0.2378,0.2397,0.2166,0.2166,0.2166,0,0.1892,0.1918,0.1936,0.1955,0.1988,0.199,0.2022,0.2026,0.203,0.2074,0.2038,0.2105,0.2098,0.2184,0.2202,0.218,0.2208,0.2189,0.2314,0.233,0.2345,0.2385,0.2405,0.2169,0.2168,0.2168,0.2168,0,0.1892,0.1924,0.1937,0.1976,0.2006,0.2033,0.2064,0.2095,0.2113,0.213,0.2208,0.22,0.2257,0.2257,0.2236,0.2353,0.2333,0.2309,0.229,0.2367,0.2404,0.2424,0.2173,0.2172,0.2171,0.217,0,0,0.1851,0.1926,0.1933,0.1987,0.2037,0.2069,0.2126,0.2201,0.226,0.2269,0.2357,0.2389,0.2404,0.2424,0.2418,0.2474,0.2576,0.2437,0.2439,0.2478,0.2721,0.2641,0.2655,0.2568,0.2573,0.2576,0.2697,0,0.1855,0.1924,0.1955,0.2035,0.2097,0.2152,0.2206,0.2276,0.232,0.2389,0.2441,0.2488,0.246,0.2481,0.2545,0.2562,0.2635,0.2545,0.2644,0.2647,0.2566,0.2678,0.2459,0.2543,0.2716,0.272,0.2722,0,0.1862,0.1918,0.201,0.2133,0.2163,0.2198,0.2348,0.2387,0.249,0.2525,0.2611,0.2621,0.2719,0.2657,0.2789,0.2729,0.2751,0.2759,0.2763,0.2696,0.2607,0.2499,0.2573,0.2755,0.2753,0.275,0.2748,0,0.1889,0.1972,0.2066,0.2103,0.2213,0.228,0.2335,0.2443,0.2498,0.2612,0.2656,0.2767,0.2805,0.2877,0.2889,0.285,0.3008,0.2953,0.2919,0.2911,0.2752,0.2724,0.3082,0.3082,0.3082,0.3081,0.3081,0,0.1922,0.1993,0.2083,0.2139,0.2224,0.2312,0.2404,0.2474,0.2575,0.2643,0.272,0.279,0.2861,0.2937,0.2955,0.3002,0.3075,0.2976,0.2961,0.2758,0.2731,0.2933,0.2914,0.3086,0.3085,0.3084,0.3083,0,0.194,0.2009,0.21,0.2212,0.2241,0.2302,0.2395,0.2454,0.2564,0.2657,0.2692,0.2827,0.2941,0.3004,0.3107,0.307,0.3123,0.3122,0.2864,0.2817,0.2962,0.2944,0.3116,0.3115,0.3114,0.3113,0.3112,0,0.1965,0.2018,0.2114,0.2139,0.2179,0.2262,0.2303,0.2422,0.2482,0.2673,0.2714,0.2868,0.2936,0.3064,0.3066,0.3112,0.3159,0.2904,0.2803,0.301,0.2978,0.2961,0.2945,0.2603,0.2598,0.2594,0.2591,0,0.1974,0.1998,0.2048,0.2093,0.2137,0.2183,0.2264,0.2312,0.2462,0.254,0.2673,0.2748,0.2902,0.285,0.2904,0.2897,0.2874,0.2823,0.3148,0.2618,0.2533,0.2498,0.2498,0.2555,0.2559,0.2562,0.2564,0.2565,0.1936,0.1941,0.1986,0.2014,0.206,0.2096,0.2101,0.2183,0.2251,0.2337,0.2509,0.2539,0.2617,0.2595,0.256,0.2553,0.2742,0.2603,0.2613,0.2628,0.2537,0.2454,0.2443,0.2446,0.2448,0.245,0.2452,0,0.184,0.1861,0.19,0.1922,0.1918,0.1987,0.2053,0.2022,0.2031,0.2151,0.2203,0.2087,0.2081,0.2198,0.2138,0.2147,0.21,0.2064,0.1981,0.2021,0.2054,0.193,0.1678,0.1675,0.1672,0.167,0,0,0.1791,0.1771,0.179,0.1759,0.1783,0.1741,0.175,0.1727,0.1777,0.1757,0.1772,0.1909,0.209,0.1813,0.1822,0.1743,0.1852,0.1679,0.2309,0.2249,0.2278,0.2388,0.2245,0,0,0,0,0]},{"header":{"parameterUnit":"m.s-1","parameterCategory":2,"la1":30.2991,"la2":30.254,"lo1":-89.0895,"lo2":-89.0444,"dy":0.0017,"dx":0.0017,"nx":28,"ny":28,"refTime":"2024-05-29T09:00:00:Z","depth":"2","parameterNumber":3,"parameterNumberName":"V-component_of_CURRENTS"},"data":[0,0,0,0,0,0,0,0,0,0,0,0,0,0,0,0,0,0,0,0,0,0,0,0,0,0,0,0,0,0,0,0,0,0,0,0,0,0,0,0,0,0,0,0,0,0,0,0,0,0,0,0,0,0,0,0,0,0,-0.0164,-0.0165,0,-0.0238,-0.0239,-0.024,-0.0281,-0.0281,-0.0281,-0.0282,-0.0365,-0.0367,-0.0369,0,0,0,0,0,0,0,0,0,0,0,0,0,-0.0073,-0.0075,-0.0164,-0.0165,-0.0166,-0.0238,-0.0239,-0.024,-0.0281,-0.0281,-0.0281,-0.0282,-0.0364,-0.0366,-0.0369,0,0,0,0,0,0,0,0,0,0,0,0,0,-0.0126,-0.0075,-0.0164,-0.0196,-0.02,-0.0238,-0.0239,-0.024,-0.0281,-0.0281,-0.0282,-0.0282,-0.0363,-0.0366,-0.0369,-0.0381,0,0,-0.0378,-0.038,0,0,0,0,0,0,0,0,-0.0123,-0.0129,-0.019,-0.0194,-0.0198,-0.0252,-0.0238,-0.0288,-0.0281,-0.0249,-0.0282,-0.0282,-0.0328,-0.0334,-0.0346,-0.0385,-0.0389,-0.0379,-0.038,-0.0382,-0.0383,0,0,0,0,0,0,0,-0.0119,-0.0126,-0.0193,-0.0191,-0.0196,-0.0212,-0.022,-0.0247,-0.0285,-0.0252,-0.0255,-0.0265,-0.033,-0.0343,-0.0348,-0.039,-0.0378,-0.0381,-0.0383,-0.0384,-0.0454,-0.0454,0,0,0,0,0,0,-0.0111,-0.0123,-0.019,-0.0195,-0.0161,-0.0213,-0.0222,-0.0233,-0.0285,-0.0293,-0.0265,-0.0267,-0.0337,-0.0344,-0.0351,-0.0365,-0.0382,-0.0384,-0.0386,-0.0454,-0.0454,-0.0454,0,0,0,0,0,0,-0.0109,-0.0116,-0.0187,-0.0161,-0.0171,-0.0215,-0.0227,-0.0235,-0.0249,-0.0295,-0.0303,-0.0272,-0.0338,-0.0347,-0.0373,-0.0369,-0.0386,-0.0389,-0.0454,-0.0454,-0.0454,-0.0396,0,0,0,0,0,0,-0.0106,-0.0115,-0.0116,-0.016,-0.0173,-0.0206,-0.0227,-0.0236,-0.0255,-0.0258,-0.0303,-0.0311,-0.0339,-0.0368,-0.0376,-0.0374,-0.0391,-0.0454,-0.0454,-0.0454,-0.0398,-0.0394,-0.0391,0,0,0,0,0,-0.0102,-0.0101,-0.0116,-0.0124,-0.0174,-0.0206,-0.0213,-0.0244,-0.0255,-0.0258,-0.0288,-0.031,-0.0375,-0.0371,-0.038,-0.0378,-0.0454,-0.0454,-0.0454,-0.04,-0.0395,-0.0391,0,0,0,0,0,0,-0.0061,-0.0107,-0.0123,-0.0136,-0.0167,-0.0213,-0.0216,-0.0241,-0.0267,-0.0268,-0.031,-0.032,-0.0343,-0.0369,-0.0364,-0.04,-0.0418,-0.042,-0.0374,-0.037,-0.0367,-0.0353,-0.0393,0,0,0,0,0,-0.0053,-0.0065,-0.011,-0.012,-0.0131,-0.0173,-0.0188,-0.0212,-0.0244,-0.0256,-0.0287,-0.032,-0.035,-0.0366,-0.0396,-0.0414,-0.044,-0.042,-0.0416,-0.0413,-0.0409,-0.0451,-0.045,-0.0454,-0.0454,-0.0454,0,0,-0.0039,-0.0066,-0.0073,-0.0112,-0.0135,-0.0149,-0.0182,-0.0202,-0.0212,-0.026,-0.0275,-0.0309,-0.0353,-0.0373,-0.0386,-0.0394,-0.0423,-0.0413,-0.041,-0.0408,-0.0451,-0.045,-0.045,-0.0454,-0.0454,-0.0454,0,0,-0.0018,-0.0041,-0.0043,-0.0065,-0.01,-0.0126,-0.013,-0.0173,-0.0189,-0.0211,-0.0248,-0.0278,-0.0321,-0.0351,-0.0373,-0.0369,-0.0404,-0.0379,-0.035,-0.039,-0.039,-0.039,-0.041,-0.0412,-0.0377,-0.0376,-0.0376,0,0.0001,-0.0013,-0.0047,-0.0054,-0.0068,-0.0113,-0.0116,-0.0138,-0.0184,-0.0198,-0.0207,-0.0278,-0.031,-0.0345,-0.034,-0.036,-0.0383,-0.0359,-0.0384,-0.0385,-0.0386,-0.0407,-0.0411,-0.0374,-0.0374,-0.0374,-0.0374,0,0.0017,0.0008,0.0007,-0.0018,-0.0034,-0.0045,-0.008,-0.0096,-0.012,-0.015,-0.0186,-0.0231,-0.0276,-0.0289,-0.031,-0.0337,-0.0349,-0.0374,-0.0391,-0.0382,-0.0405,-0.0409,-0.037,-0.0371,-0.0371,-0.0372,0,0,0.0053,0.0024,0.0024,0.0016,-0.0017,-0.0032,-0.004,-0.0072,-0.0085,-0.0122,-0.0143,-0.0189,-0.0221,-0.0247,-0.0285,-0.0311,-0.0331,-0.0337,-0.0341,-0.0349,-0.0405,-0.038,-0.0383,-0.0361,-0.0362,-0.0363,-0.0412,0,0.0075,0.007,0.0051,0.0049,0.0041,0.0006,-0.0001,-0.0033,-0.0064,-0.0092,-0.0142,-0.0175,-0.0204,-0.0224,-0.0257,-0.0316,-0.0343,-0.0314,-0.0419,-0.0422,-0.0395,-0.0388,-0.0354,-0.0392,-0.0417,-0.0418,-0.0418,0,0.0098,0.0086,0.0088,0.0068,0.0064,0.0059,0.0031,0.0018,-0.0029,-0.005,-0.0093,-0.0139,-0.0183,-0.0209,-0.03,-0.028,-0.0335,-0.0377,-0.0381,-0.0381,-0.0406,-0.0409,-0.04,-0.0426,-0.0426,-0.0425,-0.0425,0,0.0126,0.0116,0.0116,0.0109,0.008,0.0078,0.0066,0.0028,0.0026,-0.0026,-0.0028,-0.0109,-0.013,-0.0218,-0.0289,-0.0305,-0.0378,-0.0421,-0.0451,-0.0449,-0.0453,-0.045,-0.0488,-0.0488,-0.0488,-0.0488,-0.0488,0,0.0148,0.0148,0.0129,0.0124,0.013,0.0103,0.0107,0.0083,0.0064,0.0084,-0.0003,0.001,-0.0131,-0.0185,-0.0276,-0.0357,-0.0374,-0.0439,-0.0462,-0.043,-0.0425,-0.0485,-0.0484,-0.049,-0.0489,-0.0489,-0.0489,0,0.0171,0.0158,0.0157,0.0139,0.0141,0.0143,0.0152,0.0158,0.0135,0.0163,0.0157,0.0096,0.0033,-0.0097,-0.0227,-0.0319,-0.0417,-0.0443,-0.038,-0.0393,-0.0471,-0.0467,-0.0508,-0.0507,-0.0507,-0.0507,-0.0506,0,0.0176,0.0177,0.0177,0.0193,0.0188,0.0196,0.0213,0.0195,0.0225,0.0243,0.0276,0.0217,0.0231,0.0045,-0.0158,-0.0328,-0.0364,-0.0413,-0.0446,-0.0456,-0.0474,-0.047,-0.0467,-0.0429,-0.0428,-0.0427,-0.0426,0,0.0187,0.0193,0.0202,0.024,0.0262,0.029,0.0325,0.0366,0.0379,0.044,0.0529,0.0545,0.0348,0.0189,-0.0075,-0.0193,-0.0391,-0.0403,-0.0441,-0.0418,-0.0383,-0.04,-0.0399,-0.042,-0.0421,-0.0421,-0.0421,-0.0422,0.0214,0.0231,0.0263,0.0304,0.0338,0.0411,0.0471,0.054,0.0646,0.0747,0.0732,0.0765,0.0516,0.0202,-0.0037,-0.0322,-0.0324,-0.0417,-0.0419,-0.0422,-0.0394,-0.0359,-0.0385,-0.0386,-0.0386,-0.0386,-0.0387,0,0.027,0.0295,0.0331,0.0396,0.0466,0.0466,0.0571,0.0651,0.083,0.0895,0.0982,0.0801,0.0599,0.0302,-0.0112,-0.0344,-0.0381,-0.0411,-0.0414,-0.0417,-0.0421,-0.0394,-0.0385,-0.0385,-0.0386,-0.0387,0,0,0.0304,0.0363,0.0384,0.0512,0.0566,0.0677,0.0758,0.0878,0.0958,0.1077,0.109,0.1028,0.0695,0.0399,0.0072,-0.0161,-0.0234,-0.0201,-0.0173,-0.0138,-0.0139,-0.039,-0.0346,0,0,0,0,0]}],[{"header":{"parameterUnit":"m.s-1","parameterCategory":2,"la1":30.2991,"la2":30.254,"lo1":-89.0895,"lo2":-89.0444,"dy":0.0017,"dx":0.0017,"nx":28,"ny":28,"refTime":"2024-05-29T09:00:00:Z","depth":"4","parameterNumber":2,"parameterNumberName":"U-component_of_CURRENTS"},"data":[0,0,0,0,0,0,0,0,0,0,0,0,0,0,0,0,0,0,0,0,0,0,0,0,0,0,0,0,0,0,0,0,0,0,0,0,0,0,0,0,0,0,0,0,0,0,0,0,0,0,0,0,0,0,0,0,0,0,0.1022,0.1023,0,0.1124,0.1126,0.1127,0.1209,0.121,0.1211,0.1211,0.1297,0.1298,0.13,0,0,0,0,0,0,0,0,0,0,0,0,0,0.095,0.095,0.1022,0.1023,0.1024,0.1124,0.1126,0.1128,0.1209,0.121,0.1211,0.1211,0.1296,0.1298,0.13,0,0,0,0,0,0,0,0,0,0,0,0,0,0.1012,0.0951,0.1022,0.1075,0.1081,0.1124,0.1126,0.1128,0.1209,0.121,0.1211,0.1212,0.1295,0.1298,0.13,0.1298,0,0,0.1308,0.1309,0,0,0,0,0,0,0,0,0.1008,0.1015,0.1066,0.1071,0.1078,0.1153,0.1132,0.1183,0.1209,0.1163,0.1211,0.1212,0.1244,0.1251,0.1273,0.1302,0.1306,0.1308,0.131,0.1311,0.1312,0,0,0,0,0,0,0,0.1004,0.1011,0.1065,0.1067,0.1074,0.1112,0.1121,0.1142,0.1199,0.1167,0.1173,0.118,0.1248,0.127,0.1275,0.1307,0.1308,0.1311,0.1312,0.1313,0.1385,0.1385,0,0,0,0,0,0,0.0982,0.1006,0.1062,0.1068,0.1041,0.1112,0.1123,0.113,0.1199,0.121,0.1179,0.1183,0.1265,0.1272,0.1278,0.1349,0.1311,0.1314,0.1315,0.1384,0.1385,0.1385,0,0,0,0,0,0,0.098,0.0986,0.1058,0.1038,0.1049,0.1111,0.1119,0.1131,0.1181,0.1208,0.122,0.1218,0.1266,0.1275,0.1328,0.135,0.1315,0.1317,0.1384,0.1384,0.1385,0.1445,0,0,0,0,0,0,0.0978,0.0985,0.1003,0.1036,0.1049,0.1104,0.1119,0.1133,0.118,0.1188,0.1245,0.1252,0.1267,0.1324,0.133,0.1353,0.1319,0.1383,0.1384,0.1385,0.1442,0.1447,0.1451,0,0,0,0,0,0.0975,0.099,0.1003,0.1011,0.1065,0.1105,0.1117,0.1165,0.1182,0.1212,0.1251,0.1252,0.1331,0.1327,0.1334,0.1358,0.1383,0.1384,0.1385,0.144,0.1446,0.1451,0,0,0,0,0,0,0.0978,0.1,0.1015,0.104,0.1078,0.1118,0.1151,0.1177,0.1233,0.1246,0.1271,0.1282,0.1333,0.1331,0.1326,0.1375,0.1351,0.1354,0.1391,0.1397,0.1401,0.1383,0.1321,0,0,0,0,0,0.0981,0.0996,0.1027,0.1052,0.1069,0.1113,0.1142,0.1173,0.1214,0.1242,0.1282,0.1311,0.1336,0.1358,0.1381,0.1416,0.1421,0.1428,0.1433,0.1437,0.1424,0.1421,0.1424,0.1388,0.1388,0.1388,0,0,0.0988,0.1004,0.1015,0.1054,0.1087,0.1117,0.1135,0.1182,0.1213,0.1239,0.1307,0.1337,0.1348,0.1393,0.1413,0.14,0.1466,0.1438,0.1442,0.1426,0.1422,0.1426,0.1429,0.1388,0.1388,0.1388,0,0,0.1003,0.1025,0.1043,0.107,0.1117,0.1141,0.1156,0.1212,0.1247,0.1307,0.1327,0.1367,0.1421,0.143,0.1438,0.1474,0.1491,0.1488,0.1501,0.1499,0.1502,0.1505,0.1591,0.16,0.1488,0.1489,0.1489,0,0.1015,0.1031,0.1059,0.1084,0.1097,0.1149,0.1167,0.1213,0.1285,0.1303,0.1334,0.1412,0.1427,0.1458,0.1476,0.1484,0.1518,0.1487,0.1506,0.1508,0.1509,0.1596,0.1606,0.1492,0.1491,0.1491,0.1491,0,0.1032,0.1056,0.1069,0.1106,0.1132,0.1158,0.1202,0.125,0.1295,0.1333,0.1398,0.1442,0.1479,0.1495,0.1502,0.1523,0.1563,0.1517,0.1495,0.1517,0.1608,0.1617,0.1496,0.1495,0.1494,0.1493,0,0,0.102,0.1068,0.1074,0.1083,0.1136,0.1152,0.1201,0.1242,0.127,0.1362,0.14,0.1458,0.1498,0.1506,0.1533,0.1537,0.1605,0.1541,0.1539,0.1634,0.1681,0.1583,0.1584,0.1569,0.1569,0.1569,0.1769,0,0.1022,0.1043,0.1073,0.1099,0.1105,0.1151,0.1187,0.1236,0.129,0.1352,0.1409,0.1476,0.1499,0.1543,0.1549,0.1593,0.1619,0.156,0.1637,0.1641,0.1554,0.1585,0.1569,0.1775,0.1777,0.1779,0.178,0,0.1016,0.1026,0.1034,0.1065,0.1074,0.1108,0.1142,0.1197,0.1283,0.1321,0.1399,0.1472,0.1554,0.1541,0.1644,0.1617,0.1646,0.1672,0.1679,0.1558,0.1554,0.1728,0.1796,0.1794,0.1793,0.1792,0.1791,0,0.095,0.0994,0.0987,0.0998,0.1052,0.107,0.1122,0.1191,0.1242,0.1337,0.1399,0.1486,0.1587,0.1614,0.1707,0.1687,0.1799,0.177,0.1722,0.1721,0.1727,0.1721,0.1791,0.1791,0.179,0.179,0.1789,0,0.0908,0.0912,0.0963,0.0958,0.0972,0.1038,0.1084,0.113,0.1233,0.129,0.1412,0.1485,0.1603,0.17,0.1728,0.1776,0.1827,0.1732,0.174,0.1761,0.1755,0.174,0.1731,0.1797,0.1796,0.1794,0.1793,0,0.0839,0.0869,0.0869,0.0917,0.094,0.0962,0.1081,0.1128,0.1233,0.1317,0.1372,0.154,0.1669,0.1776,0.1856,0.1827,0.1852,0.1839,0.1933,0.1943,0.1793,0.1786,0.1836,0.1834,0.1832,0.183,0.1829,0,0.0797,0.0789,0.0829,0.0839,0.0869,0.0933,0.0986,0.1103,0.1157,0.1331,0.1367,0.1561,0.165,0.1752,0.1823,0.1901,0.1854,0.1892,0.1761,0.1783,0.1787,0.1782,0.1777,0.1825,0.1825,0.1824,0.1824,0,0.0721,0.0744,0.0753,0.0787,0.083,0.087,0.0959,0.0988,0.1127,0.1237,0.1342,0.1444,0.1591,0.1696,0.1774,0.1798,0.1875,0.187,0.1874,0.1751,0.177,0.1775,0.1773,0.1817,0.1818,0.1818,0.1819,0,0.0678,0.0673,0.071,0.0735,0.0781,0.0801,0.0849,0.0938,0.1018,0.1193,0.122,0.1408,0.1553,0.1644,0.1696,0.1737,0.1714,0.1657,0.1671,0.168,0.1529,0.1524,0.1503,0,0,0,0,0,0.0644,0.0648,0.0664,0.0684,0.0729,0.0768,0.0833,0.0892,0.1015,0.1052,0.113,0.1244,0.1378,0.1493,0.151,0.1635,0.1715,0.1648,0.1654,0.1778,0.1786,0.1617,0,0,0,0,0,0,0.0622,0.0643,0.065,0.0651,0.0667,0.072,0.076,0.083,0.0862,0.0986,0.1079,0.118,0.1344,0.1365,0.1495,0.1524,0.1504,0.1758,0.1756,0.1773,0.1781,0.1787,0.1616,0,0,0,0,0]},{"header":{"parameterUnit":"m.s-1","parameterCategory":2,"la1":30.2991,"la2":30.254,"lo1":-89.0895,"lo2":-89.0444,"dy":0.0017,"dx":0.0017,"nx":28,"ny":28,"refTime":"2024-05-29T09:00:00:Z","depth":"4","parameterNumber":3,"parameterNumberName":"V-component_of_CURRENTS"},"data":[0,0,0,0,0,0,0,0,0,0,0,0,0,0,0,0,0,0,0,0,0,0,0,0,0,0,0,0,0,0,0,0,0,0,0,0,0,0,0,0,0,0,0,0,0,0,0,0,0,0,0,0,0,0,0,0,0,0,-0.0103,-0.0103,0,-0.0175,-0.0176,-0.0177,-0.0217,-0.0217,-0.0217,-0.0217,-0.0288,-0.029,-0.0292,0,0,0,0,0,0,0,0,0,0,0,0,0,-0.0022,-0.0023,-0.0103,-0.0103,-0.0104,-0.0175,-0.0176,-0.0177,-0.0217,-0.0217,-0.0217,-0.0217,-0.0287,-0.029,-0.0292,0,0,0,0,0,0,0,0,0,0,0,0,0,-0.0072,-0.0023,-0.0102,-0.0133,-0.0136,-0.0175,-0.0176,-0.0177,-0.0217,-0.0217,-0.0217,-0.0217,-0.0287,-0.0289,-0.0292,-0.0305,0,0,-0.03,-0.0301,0,0,0,0,0,0,0,0,-0.0069,-0.0075,-0.0127,-0.0131,-0.0135,-0.0187,-0.0173,-0.022,-0.0217,-0.0186,-0.0217,-0.0218,-0.0254,-0.0259,-0.0273,-0.0308,-0.0312,-0.03,-0.0302,-0.0303,-0.0304,0,0,0,0,0,0,0,-0.0065,-0.0072,-0.0131,-0.0128,-0.0133,-0.015,-0.0158,-0.0182,-0.0218,-0.0189,-0.0192,-0.02,-0.0256,-0.027,-0.0275,-0.0313,-0.03,-0.0303,-0.0304,-0.0305,-0.0365,-0.0365,0,0,0,0,0,0,-0.0055,-0.0068,-0.0129,-0.0134,-0.0101,-0.0152,-0.016,-0.017,-0.0218,-0.0226,-0.02,-0.0202,-0.0265,-0.0272,-0.0277,-0.0294,-0.0303,-0.0306,-0.0307,-0.0365,-0.0365,-0.0365,0,0,0,0,0,0,-0.0053,-0.006,-0.0126,-0.0102,-0.0112,-0.0153,-0.0164,-0.0171,-0.0191,-0.0226,-0.0234,-0.0212,-0.0266,-0.0274,-0.0301,-0.0297,-0.0307,-0.0309,-0.0365,-0.0365,-0.0365,-0.0329,0,0,0,0,0,0,-0.005,-0.0058,-0.0063,-0.0102,-0.0113,-0.0149,-0.0164,-0.0173,-0.0195,-0.0198,-0.0239,-0.0246,-0.0267,-0.0297,-0.0304,-0.0301,-0.0311,-0.0365,-0.0365,-0.0365,-0.0331,-0.0328,-0.0326,0,0,0,0,0,-0.0047,-0.0055,-0.0063,-0.0071,-0.0118,-0.0149,-0.0157,-0.0186,-0.0195,-0.0204,-0.023,-0.0245,-0.0301,-0.0299,-0.0307,-0.0305,-0.0365,-0.0365,-0.0365,-0.0332,-0.0329,-0.0326,0,0,0,0,0,0,-0.0027,-0.0061,-0.0071,-0.009,-0.0116,-0.0156,-0.0168,-0.0187,-0.0215,-0.0218,-0.0249,-0.0258,-0.0281,-0.0299,-0.0295,-0.0322,-0.0334,-0.0336,-0.0306,-0.0303,-0.0301,-0.0272,-0.0314,0,0,0,0,0,-0.0022,-0.0035,-0.007,-0.0085,-0.0096,-0.0131,-0.0148,-0.0167,-0.0197,-0.021,-0.0237,-0.0264,-0.0287,-0.0299,-0.0325,-0.034,-0.0343,-0.0343,-0.0341,-0.0339,-0.032,-0.0301,-0.0294,-0.0365,-0.0365,-0.0365,0,0,-0.0018,-0.0039,-0.0046,-0.008,-0.0103,-0.0113,-0.0142,-0.0167,-0.0172,-0.0213,-0.023,-0.0261,-0.0291,-0.0309,-0.032,-0.0323,-0.0329,-0.0339,-0.0337,-0.0319,-0.03,-0.0293,-0.0286,-0.0365,-0.0365,-0.0365,0,0,-0.0013,-0.0034,-0.004,-0.0057,-0.0088,-0.0107,-0.0112,-0.0151,-0.0165,-0.0188,-0.0215,-0.0237,-0.028,-0.0292,-0.0304,-0.0303,-0.032,-0.032,-0.0282,-0.0263,-0.0257,-0.0251,-0.0279,-0.0276,-0.0315,-0.0315,-0.0315,0,-0.0005,-0.0013,-0.0047,-0.0053,-0.0052,-0.0099,-0.0091,-0.0119,-0.0161,-0.0152,-0.0188,-0.0225,-0.0264,-0.0261,-0.0273,-0.0296,-0.0303,-0.029,-0.0258,-0.0252,-0.0246,-0.0276,-0.0273,-0.0313,-0.0313,-0.0313,-0.0314,0,-0.0001,-0.0002,-0.0007,-0.0021,-0.0028,-0.0033,-0.0062,-0.0071,-0.0093,-0.011,-0.0121,-0.0177,-0.0185,-0.0217,-0.0252,-0.0233,-0.026,-0.0259,-0.0259,-0.0236,-0.0271,-0.0268,-0.0311,-0.0311,-0.0312,-0.0312,0,0,0.0015,0.0002,0.0004,0.0029,-0.0002,0.0006,-0.0001,0.0004,0.0031,-0.0032,0.0004,-0.0071,-0.0093,-0.0109,-0.0155,-0.0163,-0.0164,-0.0198,-0.0198,-0.0217,-0.0154,-0.0182,-0.0183,-0.0153,-0.0151,-0.015,-0.0206,0,0.0038,0.0064,0.0041,0.0081,0.0107,0.0082,0.0099,0.0097,0.0078,0.0093,0.0037,0.0037,-0.0054,-0.0055,-0.0078,-0.0141,-0.015,-0.0151,-0.018,-0.0182,-0.02,-0.0176,-0.0145,-0.0204,-0.0204,-0.0203,-0.0203,0,0.0062,0.0086,0.0138,0.0187,0.0196,0.0213,0.0271,0.0273,0.0269,0.0257,0.0235,0.0185,0.014,0.0077,-0.0012,-0.001,-0.007,-0.0127,-0.0129,-0.0156,-0.0202,-0.0225,-0.0198,-0.0198,-0.0199,-0.0199,-0.0199,0,0.0143,0.0163,0.0227,0.0237,0.027,0.0309,0.0329,0.0341,0.0371,0.037,0.0385,0.032,0.0293,0.0212,0.005,0.0036,-0.0044,-0.0066,-0.0147,-0.0153,-0.0127,-0.0133,-0.0082,-0.0082,-0.0082,-0.0082,-0.0081,0,0.0199,0.0252,0.0279,0.0319,0.0413,0.0408,0.0499,0.0502,0.0527,0.0559,0.0483,0.0478,0.033,0.0243,0.0108,-0.003,0.0005,-0.0131,-0.0152,-0.0119,-0.0123,-0.0128,-0.0133,-0.0084,-0.0083,-0.0083,-0.0082,0,0.0285,0.0294,0.0375,0.043,0.0457,0.0532,0.06,0.0653,0.0661,0.0699,0.0702,0.0611,0.0478,0.0313,0.0165,0.005,-0.0075,-0.012,-0.0101,-0.0122,-0.0215,-0.0218,-0.0206,-0.0208,-0.0208,-0.0209,-0.021,0,0.0333,0.0386,0.0467,0.0515,0.0543,0.0639,0.0699,0.0729,0.0761,0.0757,0.0769,0.0673,0.0577,0.0342,0.017,-0.006,-0.0093,-0.0156,-0.0166,-0.0198,-0.022,-0.0221,-0.0222,-0.0211,-0.0211,-0.0212,-0.0212,0,0.0427,0.0453,0.0506,0.0601,0.0674,0.0754,0.0821,0.0858,0.0868,0.0887,0.0819,0.0688,0.0544,0.0336,0.0163,-0.0005,-0.0118,-0.0167,-0.0166,-0.0175,-0.0204,-0.0225,-0.0225,-0.0215,-0.0215,-0.0214,-0.0214,0,0.0481,0.0523,0.0576,0.0654,0.0745,0.0804,0.0855,0.087,0.0906,0.0878,0.0852,0.0693,0.0606,0.0366,0.0199,0.0035,-0.001,-0.0064,-0.0069,-0.0068,-0.0019,-0.0035,0.0004,0,0,0,0,0,0.0512,0.053,0.0615,0.0676,0.0767,0.0804,0.0893,0.0925,0.0938,0.0895,0.0871,0.0725,0.0477,0.0382,0.0213,0.0174,-0.0042,-0.003,-0.0107,-0.0232,-0.0229,-0.0198,0,0,0,0,0,0,0.0517,0.0579,0.0601,0.0672,0.0708,0.0795,0.0844,0.0863,0.0839,0.0835,0.0713,0.0665,0.0433,0.0553,0.0195,0.015,0.0076,-0.0135,-0.0139,-0.0235,-0.0231,-0.0228,-0.0196,0,0,0,0,0]}]]